Total_Precipitation_Accumulation
1.09 0.94 0.88 1.03 0.98 0.95 0.94 0.92 0.84 0.69 0.55 0.40 0.37 0.32 0.32 0.28 0.24 0.18 0.29 0.28 0.37 0.51 0.54 0.43 0.31 0.20 0.15 0.17 0.27 0.38 0.46 0.52 0.66 0.72 0.72 0.70 0.65 0.50 0.34 0.19 0.13 0.11 0.10
0.99 0.98 0.83 0.86 0.91 1.01 1.14 1.14 0.94 0.80 0.69 0.52 0.45 0.43 0.40 0.32 0.27 0.19 0.25 0.25 0.24 0.32 0.41 0.48 0.42 0.28 0.22 0.19 0.26 0.36 0.44 0.47 0.54 0.64 0.74 0.83 0.81 0.62 0.39 0.21 0.18 0.15 0.13
0.83 0.95 0.89 0.84 0.85 1.02 1.16 1.22 1.09 0.96 0.78 0.65 0.54 0.48 0.39 0.32 0.27 0.24 0.23 0.24 0.20 0.24 0.34 0.47 0.52 0.44 0.33 0.29 0.32 0.39 0.43 0.44 0.46 0.53 0.62 0.65 0.64 0.58 0.45 0.35 0.29 0.26 0.25
0.89 0.99 0.99 0.89 0.88 1.04 1.19 1.25 1.26 1.18 0.99 0.86 0.70 0.57 0.46 0.40 0.36 0.31 0.31 0.28 0.25 0.23 0.31 0.36 0.48 0.56 0.50 0.44 0.38 0.36 0.34 0.32 0.33 0.36 0.40 0.39 0.42 0.42 0.39 0.37 0.38 0.42 0.42
0.88 1.00 1.11 1.11 1.10 1.14 1.18 1.19 1.17 1.10 1.00 0.90 0.80 0.70 0.58 0.50 0.44 0.35 0.35 0.37 0.35 0.29 0.27 0.23 0.27 0.29 0.38 0.47 0.42 0.37 0.35 0.26 0.23 0.24 0.24 0.23 0.26 0.30 0.31 0.33 0.35 0.41 0.44
1.11 1.06 1.13 1.13 1.15 1.21 1.22 1.31 1.38 1.23 1.04 1.01 0.98 0.84 0.70 0.55 0.47 0.39 0.38 0.39 0.38 0.33 0.29 0.22 0.22 0.16 0.22 0.38 0.43 0.38 0.34 0.30 0.27 0.25 0.22 0.18 0.18 0.20 0.23 0.26 0.26 0.29 0.33
1.25 1.26 1.23 1.19 1.16 1.17 1.22 1.39 1.58 1.46 1.25 1.12 1.15 1.00 0.80 0.62 0.51 0.45 0.38 0.39 0.42 0.36 0.35 0.36 0.28 0.21 0.14 0.16 0.19 0.27 0.33 0.37 0.37 0.33 0.30 0.23 0.18 0.16 0.17 0.19 0.20 0.22 0.23
1.22 1.14 1.26 1.34 1.27 1.32 1.38 1.51 1.63 1.66 1.47 1.30 1.41 1.55 1.21 0.89 0.56 0.42 0.39 0.34 0.37 0.39 0.34 0.36 0.34 0.25 0.16 0.15 0.10 0.14 0.21 0.31 0.36 0.35 0.32 0.28 0.21 0.14 0.12 0.14 0.15 0.18 0.20
1.47 1.38 1.44 1.56 1.46 1.47 1.47 1.51 1.52 1.77 1.79 1.60 1.57 1.82 1.46 1.20 1.07 0.59 0.39 0.39 0.43 0.45 0.40 0.36 0.33 0.34 0.29 0.21 0.14 0.10 0.10 0.14 0.25 0.31 0.32 0.30 0.23 0.17 0.14 0.14 0.16 0.18 0.19
1.68 1.56 1.55 1.58 1.58 1.61 1.52 1.42 1.52 1.78 2.07 1.99 1.85 1.65 1.39 1.21 1.29 1.06 0.66 0.46 0.48 0.48 0.48 0.41 0.41 0.43 0.41 0.34 0.26 0.16 0.09 0.09 0.18 0.28 0.33 0.34 0.27 0.18 0.16 0.16 0.17 0.19 0.19
1.69 1.56 1.50 1.51 1.56 1.63 1.59 1.62 1.75 1.95 2.13 2.24 2.14 1.88 1.59 1.34 1.03 1.03 1.01 0.82 0.62 0.47 0.44 0.45 0.50 0.50 0.46 0.43 0.39 0.33 0.18 0.09 0.13 0.26 0.35 0.40 0.37 0.27 0.18 0.16 0.15 0.17 0.15
1.52 1.50 1.48 1.41 1.35 1.41 1.50 1.65 1.87 1.96 2.09 2.24 2.20 1.92 1.70 1.50 1.30 1.17 1.00 1.00 0.99 0.72 0.55 0.50 0.48 0.49 0.50 0.47 0.43 0.49 0.36 0.17 0.12 0.18 0.28 0.39 0.43 0.41 0.31 0.23 0.18 0.18 0.17
1.33 1.35 1.36 1.30 1.19 1.16 1.26 1.43 1.62 1.66 1.75 1.90 1.95 1.83 1.73 1.55 1.46 1.46 1.35 1.21 1.11 0.80 0.65 0.55 0.48 0.49 0.50 0.51 0.58 0.64 0.47 0.36 0.22 0.17 0.20 0.26 0.32 0.40 0.46 0.43 0.36 0.31 0.26
1.17 1.10 1.13 1.13 1.10 1.08 1.09 1.17 1.25 1.31 1.41 1.56 1.62 1.63 1.54 1.51 1.54 1.44 1.37 1.42 1.27 1.01 0.73 0.50 0.44 0.46 0.47 0.50 0.70 0.77 0.50 0.44 0.34 0.25 0.21 0.20 0.21 0.25 0.34 0.43 0.50 0.56 0.50
0.94 0.90 0.96 1.05 1.11 1.03 0.96 1.01 1.03 1.06 1.18 1.27 1.39 1.54 1.52 1.48 1.52 1.52 1.47 1.43 1.36 1.18 0.93 0.61 0.49 0.42 0.47 0.53 0.74 0.70 0.56 0.53 0.44 0.36 0.28 0.21 0.18 0.17 0.21 0.26 0.32 0.39 0.43
0.85 0.85 0.88 0.88 0.89 0.87 0.90 0.99 1.05 1.12 1.12 1.15 1.26 1.39 1.48 1.54 1.61 1.58 1.56 1.54 1.43 1.27 1.14 0.84 0.63 0.51 0.56 0.55 0.66 0.57 0.60 0.71 0.56 0.42 0.34 0.27 0.23 0.20 0.19 0.20 0.19 0.17 0.18
0.66 0.68 0.66 0.70 0.80 0.79 0.79 0.87 0.92 0.94 0.99 1.08 1.14 1.15 1.28 1.43 1.52 1.57 1.59 1.56 1.53 1.41 1.18 1.02 0.78 0.62 0.63 0.62 0.66 0.58 0.62 0.67 0.60 0.55 0.46 0.37 0.30 0.27 0.21 0.19 0.17 0.13 0.11
0.44 0.51 0.55 0.54 0.69 0.85 0.87 0.90 0.90 0.85 0.86 0.87 0.93 0.99 1.10 1.16 1.24 1.38 1.50 1.48 1.51 1.51 1.35 1.19 0.98 0.80 0.72 0.68 0.76 0.77 0.75 0.74 0.73 0.82 0.78 0.62 0.48 0.39 0.31 0.24 0.20 0.15 0.12
0.33 0.38 0.51 0.50 0.54 0.71 0.82 0.82 0.77 0.75 0.77 0.78 0.81 0.85 0.91 1.01 1.12 1.16 1.26 1.35 1.41 1.42 1.42 1.29 1.20 1.09 0.92 0.81 0.82 0.81 0.87 0.97 0.96 0.99 1.07 0.91 0.72 0.57 0.47 0.38 0.31 0.23 0.17
0.36 0.35 0.35 0.37 0.43 0.53 0.65 0.66 0.64 0.62 0.62 0.65 0.76 0.83 0.88 0.91 0.98 1.06 1.10 1.21 1.33 1.38 1.35 1.27 1.21 1.16 1.08 1.02 0.98 0.94 1.01 1.12 1.17 1.08 1.12 1.08 0.99 0.87 0.71 0.59 0.47 0.37 0.30
0.22 0.24 0.21 0.22 0.27 0.34 0.39 0.40 0.47 0.52 0.57 0.62 0.72 0.77 0.81 0.76 0.80 0.88 0.87 1.00 1.15 1.28 1.29 1.31 1.23 1.15 1.08 1.04 1.01 1.00 1.05 1.21 1.29 1.29 1.27 1.20 1.11 0.97 0.83 0.72 0.60 0.51 0.46
0.09 0.14 0.14 0.16 0.20 0.22 0.26 0.24 0.29 0.42 0.52 0.58 0.64 0.69 0.77 0.79 0.76 0.71 0.70 0.76 0.87 0.97 1.07 1.16 1.18 1.12 1.06 1.03 1.08 1.15 1.14 1.21 1.35 1.29 1.18 1.28 1.23 1.12 0.95 0.78 0.77 0.73 0.62
0.06 0.08 0.08 0.13 0.17 0.13 0.15 0.14 0.24 0.45 0.51 0.52 0.51 0.63 0.75 0.82 0.85 0.86 0.74 0.72 0.74 0.77 0.81 0.94 1.01 1.01 1.01 1.02 1.04 1.12 1.19 1.20 1.13 1.17 1.10 1.20 1.22 1.12 0.98 0.89 0.90 0.82 0.75
0.03 0.07 0.08 0.14 0.14 0.09 0.10 0.13 0.19 0.36 0.45 0.43 0.44 0.55 0.70 0.82 0.85 0.87 0.82 0.86 0.84 0.75 0.70 0.75 0.90 0.94 0.94 1.06 1.13 1.20 1.28 1.26 1.24 1.21 1.10 1.12 1.09 0.98 0.92 0.91 0.96 0.84 0.76
0.02 0.05 0.09 0.10 0.07 0.04 0.06 0.10 0.18 0.35 0.43 0.44 0.41 0.49 0.65 0.74 0.84 0.85 0.82 0.91 0.93 0.75 0.67 0.74 0.76 0.82 0.89 1.00 1.14 1.22 1.25 1.22 1.23 1.23 1.06 0.94 0.93 0.94 0.95 0.91 0.88 0.86 0.78
0.01 0.02 0.04 0.06 0.05 0.06 0.05 0.05 0.12 0.23 0.32 0.40 0.41 0.46 0.66 0.72 0.74 0.71 0.72 0.93 1.03 0.90 0.66 0.62 0.68 0.79 0.85 0.97 1.18 1.28 1.39 1.32 1.14 1.12 1.01 0.90 0.91 0.96 1.08 1.01 0.85 0.77 0.73